Погода в Старом Эштебенькином

Россия / Самарская область     54°35′30″N   51°10′13″E
темп.,
°C
ветер,
м/с
пор.,
м/с
влажн.,
%
обл.,
%
осадки,
мм/ч
давл.,
гПа
погр.,
м
22 апреля, чт
чт2201:00+3ююв81696100 1.3 1025738
04:00+3ююв71495100 3.9 1025640
07:00+4ю71392100 1.0 1026642
10:00+5ю61183100 1.0 1026614
13:00+6ююв6117496 0.0 1026612
16:00+9ю71066100 0.0 1026828
19:00+7ю61171100 0.0 1026588
22:00+5ююв6137951 0.0 1027459
23 апреля, пт
пт2301:00+4ю6109271 0.0 1027383
04:00+3ююв48946 0.0 1027223
07:00+4ююв489313 0.0 1028276
10:00+9ююв347045 0.0 1027617
13:00+13юв3458100 0.0 10251007
16:00+14в4554100 0.0 10231358
19:00+12вюв4659100 0.0 1022289
22:00+9в3671100 0.0 1021125
24 апреля, сб
сб2401:00+8вюв5888100 0.0 1020322
04:00+7вюв4690100 1.7 1018969
07:00+7в4993100 1.3 1016845
10:00+7в5889100 2.4 10141086
13:00+7в4588100 0.5 10131001
16:00+6вюв3692100 1.0 1012507
19:00+6ююв2494100 0.1 1012228
22:00+6ю249479 0.1 1011155
25 апреля, вс
вс2501:00+6юв51292100 0.0 1009362
04:00+6ю6139285 0.1 1008430
07:00+6юз6128992 0.3 1009862
10:00+8зюз8116379 0.5 10101413
13:00+10зюз7950100 0.1 10122070
16:00+9зюз676694 1.3 10141051
19:00+8зюз36705 0.4 1014280
22:00+5юз358243 0.4 101697
26 апреля, пн
пн2601:00+4ююз348547 0.0 101677
04:00+4юз359188 0.0 1017121
07:00+4зюз49855 0.0 1018332
10:00+8з68525 0.0 10181306
13:00+10з563825 0.0 10181739
16:00+11з4637100 0.0 10182037
19:00+9ююз2351100 0.0 101758
22:00+7ю2253100 0.0 101733